Content
SEND FEEDBACK

Daily
Averages
Monthly
Summary
Greece

ATHENS, GREECE


Home > Europe > Greece
Elevation: 69 feet     Latitude: 37 54N     Longitude: 023 44E

WEATHER
 
SELECT A DAY
Number of Records: 77,167;   Date Range: 4/14/01 - 9/15/14
 
SHARE

PRINT THIS DATA

[ ← Previous Day ]
WEATHER ALMANAC - FEBRUARY 25, 2013
[ Next Day → ]
[ °C ]   °F
Weather ElementAverageHighLow
Temperature58.3 °F66.2 °F (2:20 pm)46.4 °F (6:20 am)
Dewpoint50.8 °F55.4 °F (9:20 am)46.4 °F (6:20 am)
Humidity77.3 %100 % (6:20 am)59 % (10:50 am)
Barometer30.06 in30.09 in (12:50 am)30.01 in (5:20 pm)
Wind Speed6.4 mph17.3 mph (10:50 pm)
Weather ElementAverage
Visibility6.2 mi
Wind DirectionESE (104 °)

Weather ElementTotal
Precipitation---
Heating Degree Days8.7 (Base 65)
Growing Degree Days6.3 (Base 50)
Averaged from 47 records on February 25, 2013
WEATHER CONDITIONS BREAKOUT
WIND DIRECTION BREAKOUT
WEATHER BY HOUR - FEBRUARY 25, 2013
[ °C ]   °F
Local TimeTemperatureDewpointHumidityBarometerVisibilityWind DirectionWind SpeedGust SpeedPrecipitationEventsConditions
12:50 AM53.6 °F48.2 °F82 %30.09 in6.2 miNorth (350°)4.6 mphPartly Cloudy
1:20 AM53.6 °F48.2 °F82 %30.09 in6.2 miNorth (350°)4.6 mphPartly Cloudy
1:50 AM51.8 °F50.0 °F94 %30.09 in6.2 miVariable1.2 mphScattered Clouds
2:20 AM51.8 °F50.0 °F94 %30.09 in6.2 miWNW (300°)2.3 mphScattered Clouds
2:50 AM51.8 °F50.0 °F94 %30.09 in6.2 miVariable2.3 mphScattered Clouds
3:20 AM51.8 °F50.0 °F94 %30.09 in6.2 miNW (310°)4.6 mphScattered Clouds
3:50 AM51.8 °F50.0 °F94 %30.09 in6.2 miNorth (350°)3.5 mphScattered Clouds
4:20 AM51.8 °F50.0 °F94 %30.06 in6.2 miVariable3.5 mphScattered Clouds
4:50 AM51.8 °F50.0 °F94 %30.06 in6.2 miVariable3.5 mphScattered Clouds
5:20 AM51.8 °F50.0 °F94 %30.06 in6.2 miVariable2.3 mphMostly Cloudy
5:50 AM50.0 °F48.2 °F94 %30.06 in6.2 miVariable2.3 mphScattered Clouds
6:20 AM46.4 °F46.4 °F100 %30.09 in6.2 miNW (320°)4.6 mphPartly Cloudy
6:50 AM51.8 °F50.0 °F94 %30.06 in6.2 miVariable3.5 mphPartly Cloudy
7:20 AM51.8 °F48.2 °F88 %30.09 in6.2 miCalmPartly Cloudy
7:50 AM51.8 °F48.2 °F88 %30.09 in6.2 miVariable2.3 mphPartly Cloudy
8:20 AM53.6 °F50.0 °F88 %30.09 in6.2 miVariable1.2 mphPartly Cloudy
8:50 AM57.2 °F53.6 °F88 %30.09 in6.2 miVariable1.2 mphPartly Cloudy
9:20 AM59.0 °F55.4 °F88 %30.09 in6.2 miVariable3.5 mphPartly Cloudy
9:50 AM60.8 °F53.6 °F77 %30.09 in6.2 miVariable2.3 mphPartly Cloudy
10:20 AM62.6 °F50.0 °F63 %30.09 in6.2 miSouth (170°)6.9 mphPartly Cloudy
10:50 AM64.4 °F50.0 °F59 %30.09 in6.2 miVariable3.5 mphScattered Clouds
11:20 AM64.4 °F50.0 °F59 %30.09 in6.2 miESE (110°)6.9 mphScattered Clouds
11:50 AM64.4 °F50.0 °F59 %30.09 in6.2 miSE (140°)10.4 mphScattered Clouds
12:20 PM64.4 °F51.8 °F64 %30.06 in6.2 miEast (100°)10.4 mphScattered Clouds
12:50 PM64.4 °F51.8 °F64 %30.06 in6.2 miESE (110°)11.5 mphScattered Clouds
1:20 PM62.6 °F51.8 °F68 %30.06 in6.2 miESE (120°)9.2 mphMostly Cloudy
1:50 PM64.4 °F51.8 °F64 %30.04 in6.2 miEast (100°)6.9 mphScattered Clouds
2:20 PM66.2 °F51.8 °F60 %30.04 in6.2 miEast (90°)10.4 mphScattered Clouds
2:50 PM66.2 °F51.8 °F60 %30.04 in6.2 miEast (80°)6.9 mphMostly Cloudy
3:20 PM62.6 °F53.6 °F72 %30.04 in6.2 miESE (110°)8.1 mphScattered Clouds
3:50 PM62.6 °F53.6 °F72 %30.04 in6.2 miEast (100°)8.1 mphScattered Clouds
4:20 PM62.6 °F53.6 °F72 %30.04 in6.2 miENE (70°)5.8 mphMostly Cloudy
4:50 PM62.6 °F53.6 °F72 %30.04 in6.2 miENE (60°)4.6 mphMostly Cloudy
5:20 PM62.6 °F51.8 °F68 %30.01 in6.2 miVariable3.5 mphScattered Clouds
5:50 PM62.6 °F50.0 °F63 %30.01 in6.2 miVariable3.5 mphScattered Clouds
6:20 PM60.8 °F48.2 °F63 %30.01 in6.2 miVariable3.5 mphPartly Cloudy
6:50 PM60.8 °F50.0 °F68 %30.01 in6.2 miVariable3.5 mphPartly Cloudy
7:20 PM60.8 °F50.0 °F68 %30.04 in6.2 miSouth (170°)10.4 mphScattered Clouds
7:50 PM60.8 °F50.0 °F68 %30.04 in6.2 miSSE (160°)10.4 mphScattered Clouds
8:20 PM59.0 °F50.0 °F72 %30.04 in6.2 miSSE (160°)8.1 mphMostly Cloudy
8:50 PM59.0 °F50.0 °F72 %30.04 in6.2 miSSE (160°)8.1 mphScattered Clouds
9:20 PM59.0 °F51.8 °F77 %30.01 in6.2 miSSE (160°)16.1 mphScattered Clouds
9:50 PM59.0 °F51.8 °F77 %30.01 in6.2 miSSE (150°)13.8 mphPartly Cloudy
10:20 PM59.0 °F51.8 °F77 %30.01 in6.2 miSSE (150°)16.1 mphPartly Cloudy
10:50 PM59.0 °F51.8 °F77 %30.01 in6.2 miSSE (150°)17.3 mphPartly Cloudy
11:20 PM59.0 °F51.8 °F77 %30.04 in6.2 miSSE (150°)11.5 mphScattered Clouds
11:50 PM59.0 °F51.8 °F77 %30.01 in6.2 miSE (140°)10.4 mphMostly Cloudy
Hourly data recorded from LGAV, located miles away from Athens, Greece







STORIES FROM OUR PARTNERS